| time (UTC) | temp F | wind direction | speed MPH | gust MPH | rain 1hr in | rain 24hr in | rain mn in | humidity % | barometer mb |
| 20260510230459 | 62 | 250 | 1.0 | 2.0 | 0.00 | 0.08 | 0.08 | 1 | 1013.1 |
| 20260510230000 | 62 | 46 | 1.0 | 3.0 | 0.00 | 0.08 | 0.08 | 1 | 1013.0 |
| 20260510225459 | 62 | 28 | 1.0 | 3.0 | 0.00 | 0.09 | 0.08 | 9 | 1012.8 |
| 20260510225000 | 62 | 269 | 1.0 | 5.0 | 0.00 | 0.09 | 0.08 | 10 | 1012.8 |
| 20260510224458 | 62 | 314 | 1.0 | 7.0 | 0.00 | 0.09 | 0.08 | 15 | 1012.7 |
| 20260510223959 | 63 | 213 | 1.0 | 7.0 | 0.00 | 0.09 | 0.08 | 6 | 1012.6 |
| 20260510223500 | 63 | 63 | 2.0 | 6.0 | 0.00 | 0.09 | 0.08 | 14 | 1012.5 |
| 20260510222959 | 63 | 342 | 1.0 | 6.0 | 0.00 | 0.09 | 0.08 | 27 | 1012.5 |
| 20260510222458 | 64 | 269 | 1.0 | 4.0 | 0.00 | 0.09 | 0.08 | 21 | 1012.5 |
| 20260510222000 | 64 | 1 | 1.0 | 3.0 | 0.00 | 0.09 | 0.08 | 17 | 1012.4 |
| 20260510221459 | 64 | 1 | 1.0 | 4.0 | 0.00 | 0.09 | 0.08 | 17 | 1012.3 |
| 20260510220959 | 64 | 124 | 2.0 | 7.0 | 0.00 | 0.09 | 0.08 | 11 | 1012.2 |
| 20260510220458 | 65 | 46 | 2.0 | 7.0 | 0.00 | 0.09 | 0.08 | 27 | 1012.1 |
| 20260510215959 | 65 | 1 | 2.0 | 7.0 | 0.00 | 0.11 | 0.08 | 19 | 1012.0 |
| 20260510215500 | 65 | 237 | 2.0 | 7.0 | 0.00 | 0.11 | 0.08 | 31 | 1012.0 |
| 20260510214959 | 66 | 314 | 1.0 | 4.0 | 0.00 | 0.11 | 0.08 | 8 | 1011.9 |
| 20260510214458 | 66 | 269 | 2.0 | 5.0 | 0.00 | 0.11 | 0.08 | 19 | 1011.9 |
| 20260510213959 | 66 | 193 | 2.0 | 7.0 | 0.00 | 0.11 | 0.08 | 21 | 1011.9 |
| 20260510213459 | 66 | 28 | 2.0 | 9.0 | 0.00 | 0.11 | 0.08 | 26 | 1012.0 |
| 20260510213000 | 67 | 239 | 1.0 | 5.0 | 0.00 | 0.11 | 0.08 | 10 | 1012.0 |
| 20260510212459 | 67 | 253 | 1.0 | 5.0 | 0.00 | 0.11 | 0.08 | 10 | 1011.9 |
| 20260510211958 | 67 | 331 | 1.0 | 5.0 | 0.00 | 0.11 | 0.08 | 16 | 1011.9 |
| 20260510211459 | 67 | 331 | 1.0 | 4.0 | 0.00 | 0.11 | 0.08 | 16 | 1011.9 |
| 20260510210959 | 67 | 269 | 2.0 | 9.0 | 0.00 | 0.11 | 0.08 | 1 | 1011.8 |
| 20260510210459 | 67 | 303 | 2.0 | 9.0 | 0.00 | 0.11 | 0.08 | 8 | 1011.8 |
| 20260510210000 | 68 | 258 | 2.0 | 7.0 | 0.00 | 0.11 | 0.08 | 3 | 1011.9 |
| 20260510205459 | 68 | 344 | 2.0 | 6.0 | 0.00 | 0.18 | 0.08 | 8 | 1011.8 |
| 20260510204959 | 68 | 252 | 2.0 | 9.0 | 0.00 | 0.18 | 0.08 | 2 | 1011.9 |
| 20260510204459 | 68 | 28 | 2.0 | 6.0 | 0.00 | 0.18 | 0.08 | 1 | 1011.8 |
| 20260510203959 | 68 | 195 | 2.0 | 6.0 | 0.00 | 0.18 | 0.08 | 1 | 1011.7 |
| 20260510203459 | 69 | 206 | 2.0 | 7.0 | 0.00 | 0.18 | 0.08 | 1 | 1011.7 |
| 20260510202459 | 69 | 216 | 2.0 | 7.0 | 0.00 | 0.18 | 0.08 | 1 | 1011.7 |
| 20260510201959 | 69 | 214 | 2.0 | 7.0 | 0.00 | 0.18 | 0.08 | 1 | 1011.7 |
| 20260510201459 | 68 | 20 | 2.0 | 7.0 | 0.00 | 0.18 | 0.08 | 1 | 1011.8 |
| 20260510200959 | 68 | 283 | 2.0 | 6.0 | 0.00 | 0.18 | 0.08 | 1 | 1011.8 |
| 20260510200000 | 68 | 232 | 2.0 | 6.0 | 0.00 | 0.18 | 0.08 | 1 | 1011.9 |
| 20260510195500 | 68 | 321 | 2.0 | 6.0 | 0.00 | 0.26 | 0.08 | 1 | 1012.0 |
| 20260510194000 | 67 | 223 | 2.0 | 6.0 | 0.00 | 0.26 | 0.08 | 1 | 1012.1 |
| 20260510193458 | 67 | 178 | 2.0 | 6.0 | 0.00 | 0.26 | 0.08 | 1 | 1012.0 |
| 20260510192959 | 67 | 344 | 2.0 | 6.0 | 0.00 | 0.26 | 0.08 | 1 | 1012.0 |
| 20260510191959 | 66 | 197 | 2.0 | 7.0 | 0.00 | 0.26 | 0.08 | 1 | 1012.0 |
| 20260510191001 | 65 | 234 | 1.0 | 4.0 | 0.00 | 0.26 | 0.08 | 1 | 1012.0 |
| 20260510190500 | 65 | 319 | 1.0 | 3.0 | 0.00 | 0.26 | 0.08 | 1 | 1012.1 |
| 20260510190001 | 65 | 295 | 2.0 | 5.0 | 0.01 | 0.26 | 0.08 | 1 | 1012.2 |
| 20260510185000 | 64 | 340 | 2.0 | 4.0 | 0.02 | 0.37 | 0.08 | 1 | 1012.2 |
| 20260510184459 | 63 | 314 | 1.0 | 4.0 | 0.02 | 0.37 | 0.08 | 1 | 1012.3 |
| 20260510183959 | 63 | 223 | 1.0 | 4.0 | 0.03 | 0.37 | 0.08 | 1 | 1012.3 |
| 20260510183459 | 62 | 28 | 1.0 | 4.0 | 0.03 | 0.37 | 0.08 | 1 | 1012.4 |
| 20260510182959 | 62 | 211 | 1.0 | 3.0 | 0.04 | 0.37 | 0.08 | 1 | 1012.4 |
| 20260510182459 | 61 | 269 | 1.0 | 4.0 | 0.05 | 0.37 | 0.08 | 1 | 1012.4 |
| 20260510182000 | 61 | 226 | 1.0 | 4.0 | 0.05 | 0.37 | 0.08 | 1 | 1012.4 |
| 20260510181458 | 61 | 246 | 0.0 | 2.0 | 0.06 | 0.37 | 0.08 | 1 | 1012.4 |
| 20260510180459 | 61 | 340 | 0.0 | 2.0 | 0.06 | 0.37 | 0.08 | 1 | 1012.5 |
| 20260510175959 | 61 | 145 | 0.0 | 2.0 | 0.05 | 0.44 | 0.07 | 1 | 1012.6 |
| 20260510175459 | 61 | 108 | 1.0 | 3.0 | 0.04 | 0.43 | 0.06 | 1 | 1012.6 |
| 20260510174958 | 61 | 269 | 1.0 | 3.0 | 0.04 | 0.43 | 0.06 | 1 | 1012.5 |
| 20260510174458 | 61 | 206 | 1.0 | 2.0 | 0.04 | 0.43 | 0.06 | 1 | 1012.4 |
| 20260510173958 | 61 | 178 | 0.0 | 2.0 | 0.03 | 0.42 | 0.05 | 1 | 1012.3 |
| 20260510173459 | 62 | 89 | 0.0 | 1.0 | 0.03 | 0.42 | 0.05 | 1 | 1012.3 |
| 20260510172958 | 62 | 223 | 0.0 | 2.0 | 0.02 | 0.41 | 0.04 | 1 | 1012.3 |
| 20260510171957 | 62 | 46 | 1.0 | 2.0 | 0.01 | 0.40 | 0.03 | 1 | 1012.0 |
| 20260510171458 | 62 | 20 | 1.0 | 2.0 | 0.00 | 0.39 | 0.02 | 1 | 1012.4 |
| 20260510170958 | 62 | 295 | 1.0 | 2.0 | 0.00 | 0.39 | 0.02 | 1 | 1012.2 |
| 20260510170457 | 62 | 314 | 0.0 | 2.0 | 0.00 | 0.39 | 0.02 | 1 | 1012.1 |
| 20260510165459 | 62 | 46 | 0.0 | 2.0 | 0.00 | 0.47 | 0.02 | 1 | 1012.2 |
| 20260510164959 | 62 | 1 | 1.0 | 2.0 | 0.00 | 0.47 | 0.02 | 1 | 1012.3 |
| 20260510164459 | 62 | 35 | 1.0 | 2.0 | 0.00 | 0.47 | 0.02 | 1 | 1012.3 |
| 20260510163958 | 62 | 28 | 1.0 | 1.0 | 0.00 | 0.47 | 0.02 | 1 | 1012.4 |
| 20260510163459 | 62 | 28 | 1.0 | 2.0 | 0.00 | 0.47 | 0.02 | 1 | 1012.4 |
| 20260510162500 | 62 | 302 | 1.0 | 2.0 | 0.00 | 0.47 | 0.02 | 1 | 1012.4 |
| 20260510161958 | 62 | 28 | 1.0 | 2.0 | 0.00 | 0.47 | 0.02 | 1 | 1012.4 |
| 20260510161459 | 62 | 295 | 1.0 | 3.0 | 0.00 | 0.47 | 0.02 | 1 | 1012.4 |
| 20260510160959 | 62 | 20 | 1.0 | 3.0 | 0.00 | 0.47 | 0.02 | 1 | 1012.4 |
| 20260510160459 | 62 | 340 | 1.0 | 3.0 | 0.00 | 0.47 | 0.02 | 1 | 1012.4 |
| 20260510160000 | 62 | 20 | 1.0 | 5.0 | 0.00 | 0.47 | 0.02 | 1 | 1012.4 |
| 20260510155458 | 61 | 197 | 2.0 | 5.0 | 0.00 | 0.51 | 0.02 | 1 | 1012.3 |
| 20260510154958 | 61 | 46 | 2.0 | 4.0 | 0.00 | 0.51 | 0.02 | 1 | 1012.3 |
| 20260510154458 | 61 | 221 | 1.0 | 4.0 | 0.00 | 0.51 | 0.02 | 1 | 1012.4 |
| 20260510153959 | 61 | 1 | 1.0 | 5.0 | 0.00 | 0.51 | 0.02 | 1 | 1012.4 |
| 20260510153459 | 60 | 46 | 2.0 | 5.0 | 0.00 | 0.51 | 0.02 | 1 | 1012.3 |
| 20260510152959 | 60 | 178 | 2.0 | 6.0 | 0.00 | 0.51 | 0.02 | 1 | 1012.4 |
| 20260510152000 | 59 | 46 | 1.0 | 3.0 | 0.00 | 0.51 | 0.02 | 1 | 1012.4 |
| 20260510151459 | 59 | 35 | 1.0 | 3.0 | 0.00 | 0.51 | 0.02 | 1 | 1012.4 |
| 20260510150958 | 59 | 28 | 1.0 | 3.0 | 0.00 | 0.51 | 0.02 | 1 | 1012.5 |
| 20260510150459 | 58 | 56 | 1.0 | 3.0 | 0.00 | 0.51 | 0.02 | 1 | 1012.5 |
| 20260510145958 | 58 | 28 | 2.0 | 4.0 | 0.00 | 0.52 | 0.02 | 1 | 1012.5 |
| 20260510145459 | 58 | 190 | 2.0 | 5.0 | 0.00 | 0.52 | 0.02 | 1 | 1012.6 |
| 20260510144959 | 57 | 165 | 2.0 | 5.0 | 0.00 | 0.52 | 0.02 | 1 | 1012.7 |
| 20260510144459 | 56 | 193 | 2.0 | 5.0 | 0.00 | 0.52 | 0.02 | 1 | 1012.8 |
| 20260510143959 | 56 | 194 | 2.0 | 5.0 | 0.00 | 0.52 | 0.02 | 1 | 1012.8 |
| 20260510143458 | 55 | 154 | 2.0 | 5.0 | 0.00 | 0.52 | 0.02 | 1 | 1012.8 |
| 20260510142458 | 55 | 122 | 0.0 | 3.0 | 0.00 | 0.52 | 0.02 | 1 | 1012.7 |
| 20260510141959 | 54 | 13 | 1.0 | 2.0 | 0.00 | 0.52 | 0.02 | 1 | 1012.8 |
| 20260510141457 | 54 | 46 | 1.0 | 3.0 | 0.00 | 0.52 | 0.02 | 1 | 1012.8 |
| 20260510140958 | 54 | 167 | 1.0 | 3.0 | 0.00 | 0.52 | 0.02 | 1 | 1012.8 |
| 20260510140500 | 54 | 1 | 1.0 | 2.0 | 0.00 | 0.52 | 0.02 | 1 | 1012.9 |
| 20260510135957 | 53 | 53 | 1.0 | 3.0 | 0.00 | 0.52 | 0.02 | 1 | 1013.0 |
| 20260510134957 | 53 | 152 | 1.0 | 2.0 | 0.00 | 0.52 | 0.02 | 1 | 1013.0 |
| 20260510134457 | 52 | 1 | 1.0 | 2.0 | 0.00 | 0.52 | 0.02 | 1 | 1012.9 |
| 20260510133957 | 52 | 46 | 1.0 | 2.0 | 0.00 | 0.52 | 0.02 | 1 | 1012.9 |
| 20260510133457 | 52 | 1 | 1.0 | 3.0 | 0.00 | 0.52 | 0.02 | 1 | 1012.9 |
| 20260510132957 | 51 | 39 | 1.0 | 3.0 | 0.00 | 0.52 | 0.02 | 1 | 1012.7 |
| 20260510132458 | 51 | 89 | 1.0 | 2.0 | 0.00 | 0.52 | 0.02 | 1 | 1012.7 |
| 20260510131957 | 50 | 127 | 1.0 | 2.0 | 0.00 | 0.52 | 0.02 | 1 | 1012.7 |
| 20260510131457 | 50 | 63 | 1.0 | 3.0 | 0.00 | 0.52 | 0.02 | 1 | 1012.8 |
| 20260510130957 | 50 | 35 | 1.0 | 3.0 | 0.00 | 0.52 | 0.02 | 1 | 1012.9 |
| 20260510130457 | 49 | 250 | 1.0 | 2.0 | 0.00 | 0.52 | 0.02 | 1 | 1012.9 |
| 20260510125957 | 49 | 206 | 1.0 | 2.0 | 0.00 | 0.52 | 0.02 | 1 | 1013.1 |
| 20260510125458 | 49 | 1 | 1.0 | 2.0 | 0.00 | 0.52 | 0.02 | 1 | 1013.1 |
| 20260510124959 | 49 | 63 | 1.0 | 2.0 | 0.00 | 0.52 | 0.02 | 1 | 1013.0 |
| 20260510124457 | 49 | 28 | 1.0 | 2.0 | 0.00 | 0.52 | 0.02 | 1 | 1013.1 |
| 20260510123959 | 49 | 197 | 1.0 | 2.0 | 0.00 | 0.52 | 0.02 | 1 | 1013.1 |
| 20260510123458 | 49 | 206 | 1.0 | 2.0 | 0.00 | 0.52 | 0.02 | 1 | 1013.2 |
| 20260510122958 | 48 | 178 | 1.0 | 2.0 | 0.00 | 0.52 | 0.02 | 1 | 1013.1 |
| 20260510122459 | 48 | 269 | 1.0 | 2.0 | 0.00 | 0.52 | 0.02 | 1 | 1013.2 |
| 20260510121958 | 48 | 178 | 1.0 | 2.0 | 0.00 | 0.52 | 0.02 | 1 | 1013.1 |
| 20260510121458 | 48 | 250 | 1.0 | 2.0 | 0.00 | 0.52 | 0.02 | 1 | 1013.2 |
| 20260510120958 | 48 | 314 | 1.0 | 2.0 | 0.00 | 0.52 | 0.02 | 1 | 1013.2 |
| 20260510120459 | 48 | 178 | 1.0 | 3.0 | 0.00 | 0.52 | 0.02 | 1 | 1013.1 |
| 20260510115958 | 48 | 152 | 1.0 | 3.0 | 0.00 | 0.52 | 0.02 | 1 | 1012.8 |
| 20260510115459 | 48 | 46 | 1.0 | 2.0 | 0.00 | 0.52 | 0.02 | 1 | 1013.0 |
| 20260510114957 | 48 | 231 | 0.0 | 2.0 | 0.00 | 0.52 | 0.02 | 1 | 1013.0 |
| 20260510114457 | 47 | 223 | 0.0 | 1.0 | 0.00 | 0.52 | 0.02 | 1 | 1013.0 |
| 20260510113958 | 47 | 89 | 0.0 | 1.0 | 0.00 | 0.52 | 0.02 | 1 | 1013.1 |
| 20260510113500 | 47 | 89 | 0.0 | 1.0 | 0.00 | 0.52 | 0.02 | 1 | 1013.1 |
| 20260510112958 | 47 | 20 | 0.0 | 1.0 | 0.00 | 0.52 | 0.02 | 1 | 1013.2 |
| 20260510112458 | 47 | 314 | 0.0 | 1.0 | 0.00 | 0.52 | 0.02 | 1 | 1013.1 |
| 20260510111959 | 47 | 28 | 0.0 | 1.0 | 0.00 | 0.52 | 0.02 | 1 | 1013.1 |
| 20260510111458 | 47 | 20 | 0.0 | 1.0 | 0.00 | 0.52 | 0.02 | 1 | 1013.0 |
| 20260510110959 | 47 | 46 | 0.0 | 1.0 | 0.00 | 0.52 | 0.02 | 1 | 1012.8 |
| 20260510110458 | 47 | 28 | 0.0 | 1.0 | 0.00 | 0.52 | 0.02 | 1 | 1012.7 |
| 20260510105957 | 47 | 223 | 0.0 | 2.0 | 0.00 | 0.52 | 0.02 | 1 | 1012.6 |
| 20260510105458 | 47 | 223 | 0.0 | 2.0 | 0.00 | 0.52 | 0.02 | 1 | 1012.5 |
| 20260510104957 | 47 | 28 | 1.0 | 2.0 | 0.00 | 0.52 | 0.02 | 1 | 1012.5 |
| 20260510104457 | 47 | 39 | 1.0 | 2.0 | 0.00 | 0.52 | 0.02 | 1 | 1012.4 |
| 20260510103956 | 47 | 46 | 1.0 | 2.0 | 0.00 | 0.52 | 0.02 | 1 | 1012.3 |
| 20260510103458 | 46 | 314 | 1.0 | 3.0 | 0.00 | 0.52 | 0.02 | 1 | 1012.3 |
| 20260510102957 | 46 | 178 | 1.0 | 2.0 | 0.00 | 0.52 | 0.02 | 1 | 1012.0 |
| 20260510101957 | 46 | 63 | 1.0 | 3.0 | 0.00 | 0.52 | 0.02 | 1 | 1011.5 |
| 20260510101457 | 46 | 135 | 1.0 | 2.0 | 0.00 | 0.52 | 0.02 | 1 | 1011.6 |
| 20260510100957 | 46 | 117 | 1.0 | 2.0 | 0.00 | 0.52 | 0.02 | 1 | 1011.6 |
| 20260510100457 | 46 | 213 | 0.0 | 2.0 | 0.00 | 0.52 | 0.02 | 1 | 1012.0 |
| 20260510095957 | 46 | 269 | 0.0 | 2.0 | 0.00 | 0.52 | 0.02 | 1 | 1011.7 |
| 20260510095457 | 46 | 1 | 1.0 | 2.0 | 0.00 | 0.52 | 0.02 | 1 | 1011.9 |
| 20260510094958 | 46 | 269 | 0.0 | 2.0 | 0.00 | 0.52 | 0.02 | 1 | 1011.6 |
| 20260510094458 | 46 | 241 | 0.0 | 1.0 | 0.00 | 0.52 | 0.02 | 1 | 1011.3 |
| 20260510093958 | 46 | 178 | 0.0 | 1.0 | 0.00 | 0.52 | 0.02 | 1 | 1011.3 |
| 20260510093458 | 46 | 241 | 0.0 | 1.0 | 0.00 | 0.52 | 0.02 | 1 | 1011.4 |
| 20260510092957 | 46 | 89 | 0.0 | 1.0 | 0.00 | 0.52 | 0.02 | 1 | 1011.6 |
| 20260510092457 | 46 | 1 | 0.0 | 1.0 | 0.00 | 0.52 | 0.02 | 1 | 1011.6 |
| 20260510091957 | 46 | 223 | 0.0 | 1.0 | 0.00 | 0.52 | 0.02 | 1 | 1011.6 |
| 20260510091458 | 46 | 250 | 0.0 | 1.0 | 0.00 | 0.52 | 0.02 | 1 | 1011.5 |
| 20260510090458 | 46 | 108 | 0.0 | 2.0 | 0.00 | 0.52 | 0.02 | 1 | 1011.7 |
| 20260510084957 | 46 | 269 | 0.0 | 1.0 | 0.00 | 0.52 | 0.02 | 1 | 1012.0 |
| 20260510084456 | 46 | 360 | 0.0 | 1.0 | 0.00 | 0.52 | 0.02 | 1 | 1011.8 |
| 20260510082956 | 46 | 178 | 0.0 | 1.0 | 0.00 | 0.52 | 0.02 | 1 | 1011.9 |
| 20260510082456 | 46 | 46 | 0.0 | 1.0 | 0.00 | 0.52 | 0.02 | 1 | 1011.9 |
| 20260510081956 | 46 | 46 | 0.0 | 1.0 | 0.00 | 0.52 | 0.02 | 1 | 1012.0 |
| 20260510081457 | 46 | 1 | 0.0 | 0.0 | 0.01 | 0.52 | 0.02 | 1 | 1012.1 |
| 20260510080956 | 46 | 46 | 0.0 | 0.0 | 0.01 | 0.52 | 0.02 | 1 | 1012.1 |
| 20260510080457 | 46 | 46 | 0.0 | 1.0 | 0.01 | 0.52 | 0.02 | 1 | 1012.0 |
| 20260510075959 | 46 | 46 | 0.0 | 1.0 | 0.01 | 0.52 | 0.02 | 1 | 1011.8 |
| 20260510075458 | 46 | 46 | 0.0 | 1.0 | 0.01 | 0.52 | 0.02 | 1 | 1011.9 |
| 20260510074958 | 46 | 223 | 0.0 | 1.0 | 0.01 | 0.52 | 0.02 | 1 | 1011.9 |
| 20260510073958 | 46 | 223 | 0.0 | 1.0 | 0.01 | 0.52 | 0.02 | 1 | 1011.6 |
| 20260510073457 | 46 | 223 | 0.0 | 1.0 | 0.01 | 0.52 | 0.02 | 1 | 1011.7 |
| 20260510072957 | 46 | 46 | 0.0 | 2.0 | 0.01 | 0.52 | 0.02 | 1 | 1011.6 |
| 20260510072459 | 46 | 190 | 0.0 | 2.0 | 0.01 | 0.52 | 0.02 | 1 | 1011.6 |
| 20260510071958 | 46 | 46 | 0.0 | 1.0 | 0.01 | 0.52 | 0.02 | 1 | 1011.9 |
| 20260510071458 | 46 | 223 | 0.0 | 1.0 | 0.00 | 0.51 | 0.01 | 1 | 1011.9 |
| 20260510070956 | 46 | 269 | 0.0 | 1.0 | 0.00 | 0.51 | 0.01 | 1 | 1012.0 |
| 20260510070458 | 46 | 28 | 0.0 | 1.0 | 0.00 | 0.51 | 0.01 | 1 | 1012.2 |
| 20260510065958 | 46 | 46 | 0.0 | 1.0 | 0.00 | 0.51 | 0.01 | 1 | 1012.3 |
| 20260510065456 | 46 | 46 | 0.0 | 1.0 | 0.00 | 0.51 | 0.01 | 1 | 1012.3 |
| 20260510064956 | 46 | 223 | 0.0 | 2.0 | 0.00 | 0.51 | 0.01 | 1 | 1012.3 |
| 20260510064456 | 46 | 178 | 0.0 | 1.0 | 0.00 | 0.51 | 0.01 | 1 | 1012.3 |
| 20260510063456 | 46 | 178 | 1.0 | 2.0 | 0.00 | 0.51 | 0.01 | 1 | 1012.1 |
| 20260510062956 | 46 | 178 | 0.0 | 2.0 | 0.00 | 0.51 | 0.01 | 1 | 1012.1 |
| 20260510062457 | 46 | 46 | 0.0 | 1.0 | 0.00 | 0.51 | 0.01 | 1 | 1012.1 |
| 20260510061457 | 46 | 269 | 0.0 | 2.0 | 0.00 | 0.51 | 0.01 | 1 | 1012.0 |
| 20260510060956 | 46 | 135 | 0.0 | 1.0 | 0.00 | 0.51 | 0.01 | 1 | 1012.0 |
| 20260510055956 | 46 | 1 | 1.0 | 2.0 | 0.00 | 0.51 | 0.01 | 1 | 1012.3 |
| 20260510055457 | 46 | 223 | 0.0 | 2.0 | 0.01 | 0.51 | 0.01 | 1 | 1012.1 |
| 20260510054956 | 46 | 178 | 1.0 | 3.0 | 0.01 | 0.51 | 0.01 | 1 | 1012.0 |
| 20260510054457 | 46 | 127 | 0.0 | 3.0 | 0.01 | 0.51 | 0.01 | 1 | 1012.0 |
| 20260510053956 | 46 | 197 | 0.0 | 2.0 | 0.01 | 0.51 | 0.01 | 1 | 1012.0 |
| 20260510053458 | 46 | 1 | 0.0 | 2.0 | 0.01 | 0.51 | 0.01 | 1 | 1012.1 |
| 20260510052957 | 46 | 213 | 0.0 | 1.0 | 0.01 | 0.51 | 0.01 | 1 | 1012.1 |
| 20260510052457 | 46 | 223 | 0.0 | 2.0 | 0.01 | 0.51 | 0.01 | 1 | 1012.1 |
| 20260510051956 | 46 | 178 | 0.0 | 2.0 | 0.01 | 0.51 | 0.01 | 1 | 1012.3 |
| 20260510051456 | 46 | 46 | 0.0 | 1.0 | 0.01 | 0.51 | 0.01 | 1 | 1012.4 |
| 20260510050957 | 46 | 269 | 0.0 | 1.0 | 0.01 | 0.51 | 0.01 | 1 | 1012.5 |
| 20260510050000 | 46 | 89 | 0.0 | 1.0 | 0.01 | 0.51 | 0.01 | 1 | 1012.5 |
| 20260510045459 | 46 | 269 | 0.0 | 2.0 | 0.00 | 0.50 | 0.00 | 1 | 1012.5 |
| 20260510044500 | 46 | 223 | 0.0 | 1.0 | 0.00 | 0.50 | 0.00 | 1 | 1012.5 |
| 20260510043459 | 46 | 46 | 0.0 | 1.0 | 0.00 | 0.50 | 0.00 | 1 | 1012.6 |
| 20260510042000 | 46 | 234 | 0.0 | 2.0 | 0.00 | 0.50 | 0.00 | 1 | 1012.7 |
| 20260510041500 | 46 | 223 | 0.0 | 2.0 | 0.00 | 0.50 | 0.00 | 1 | 1012.6 |
| 20260510041000 | 46 | 178 | 1.0 | 2.0 | 0.00 | 0.50 | 0.00 | 1 | 1012.6 |
| 20260510040459 | 46 | 269 | 1.0 | 2.0 | 0.00 | 0.50 | 0.00 | 1 | 1012.6 |
| 20260510035959 | 46 | 168 | 0.0 | 3.0 | 0.00 | 0.50 | 0.50 | 1 | 1012.7 |
| 20260510035459 | 46 | 223 | 1.0 | 3.0 | 0.00 | 0.50 | 0.50 | 1 | 1012.6 |
| 20260510034459 | 46 | 234 | 0.0 | 2.0 | 0.00 | 0.50 | 0.50 | 1 | 1012.6 |
| 20260510034000 | 46 | 269 | 0.0 | 1.0 | 0.00 | 0.50 | 0.50 | 1 | 1012.5 |
| 20260510033500 | 46 | 1 | 0.0 | 1.0 | 0.00 | 0.50 | 0.50 | 1 | 1012.6 |
| 20260510033000 | 46 | 206 | 0.0 | 1.0 | 0.00 | 0.50 | 0.50 | 1 | 1012.5 |
| 20260510032500 | 46 | 89 | 0.0 | 1.0 | 0.00 | 0.50 | 0.50 | 1 | 1012.7 |
| 20260510030959 | 46 | 269 | 0.0 | 2.0 | 0.00 | 0.50 | 0.50 | 1 | 1012.9 |
| 20260510030459 | 46 | 15 | 1.0 | 2.0 | 0.00 | 0.50 | 0.50 | 1 | 1012.8 |
| 20260510030002 | 46 | 135 | 1.0 | 3.0 | 0.00 | 0.50 | 0.50 | 1 | 1013.0 |
| 20260510024501 | 46 | 135 | 1.0 | 3.0 | 0.00 | 0.50 | 0.50 | 1 | 1013.1 |
| 20260510023959 | 46 | 100 | 1.0 | 2.0 | 0.00 | 0.50 | 0.50 | 1 | 1013.2 |
| 20260510023000 | 46 | 28 | 1.0 | 2.0 | 0.00 | 0.50 | 0.50 | 1 | 1013.0 |
| 20260510022000 | 46 | 89 | 1.0 | 3.0 | 0.00 | 0.50 | 0.50 | 1 | 1013.1 |
| 20260510020500 | 46 | 76 | 1.0 | 2.0 | 0.00 | 0.50 | 0.50 | 1 | 1013.3 |
| 20260510015959 | 46 | 35 | 1.0 | 2.0 | 0.00 | 0.50 | 0.50 | 1 | 1013.3 |
| 20260510014958 | 46 | 89 | 0.0 | 2.0 | 0.00 | 0.50 | 0.50 | 1 | 1013.2 |
| 20260510014458 | 46 | 223 | 1.0 | 4.0 | 0.00 | 0.50 | 0.50 | 1 | 1013.3 |
| 20260510013958 | 46 | 117 | 1.0 | 4.0 | 0.00 | 0.50 | 0.50 | 1 | 1013.3 |
| 20260510013458 | 46 | 1 | 1.0 | 2.0 | 0.00 | 0.50 | 0.50 | 1 | 1013.4 |
| 20260510012958 | 46 | 56 | 1.0 | 2.0 | 0.00 | 0.50 | 0.50 | 1 | 1013.4 |
| 20260510012459 | 46 | 178 | 0.0 | 3.0 | 0.00 | 0.50 | 0.50 | 1 | 1013.4 |
| 20260510011959 | 46 | 314 | 0.0 | 3.0 | 0.00 | 0.50 | 0.50 | 1 | 1013.4 |
| 20260510011458 | 46 | 46 | 0.0 | 2.0 | 0.00 | 0.50 | 0.50 | 1 | 1013.5 |
| 20260510010958 | 46 | 89 | 0.0 | 2.0 | 0.00 | 0.50 | 0.50 | 1 | 1013.5 |
| 20260510010458 | 46 | 223 | 0.0 | 2.0 | 0.00 | 0.50 | 0.50 | 1 | 1013.5 |
| 20260510010001 | 46 | 63 | 0.0 | 2.0 | 0.00 | 0.50 | 0.50 | 1 | 1013.4 |
| 20260510005500 | 46 | 269 | 0.0 | 2.0 | 0.00 | 0.50 | 0.50 | 1 | 1013.3 |
| 20260510004959 | 46 | 28 | 0.0 | 1.0 | 0.00 | 0.50 | 0.50 | 1 | 1013.2 |
| 20260510004500 | 46 | 46 | 0.0 | 3.0 | 0.00 | 0.50 | 0.50 | 1 | 1013.2 |
| 20260510004000 | 46 | 28 | 0.0 | 3.0 | 0.00 | 0.50 | 0.50 | 1 | 1013.1 |
| 20260510003459 | 46 | 63 | 1.0 | 2.0 | 0.00 | 0.50 | 0.50 | 1 | 1013.1 |
| 20260510002959 | 46 | 46 | 1.0 | 2.0 | 0.00 | 0.50 | 0.50 | 1 | 1013.0 |
| 20260510002459 | 46 | 89 | 0.0 | 2.0 | 0.00 | 0.50 | 0.50 | 1 | 1012.9 |
| 20260510001500 | 46 | 63 | 0.0 | 2.0 | 0.00 | 0.50 | 0.50 | 1 | 1012.8 |
| 20260510000959 | 46 | 89 | 0.0 | 2.0 | 0.00 | 0.50 | 0.50 | 1 | 1012.7 |
| 20260509235000 | 46 | 63 | 0.0 | 2.0 | 0.00 | 0.50 | 0.50 | 1 | 1012.6 |
| 20260509234001 | 46 | 321 | 1.0 | 2.0 | 0.00 | 0.50 | 0.50 | 1 | 1012.6 |
| 20260509233500 | 46 | 46 | 0.0 | 2.0 | 0.00 | 0.50 | 0.50 | 1 | 1012.7 |
| 20260509233000 | 46 | 28 | 0.0 | 2.0 | 0.00 | 0.50 | 0.50 | 1 | 1012.6 |
| 20260509231501 | 47 | 46 | 0.0 | 2.0 | 0.00 | 0.50 | 0.50 | 1 | 1012.4 |
| 20260509231001 | 47 | 89 | 1.0 | 2.0 | 0.00 | 0.50 | 0.50 | 1 | 1012.5 |